Regional Weather Roundup
Issued by NWS

Home | Current Version | Previous Version | Graphics & Text | Print | Product List | Glossary On
Versions: 1 2 3 4 5 6 7 8 9 10 11 12 13 14 15 16 17 18 19 20 21 22 23 24 25 26 27 28 29 30 31 32 33 34 35 36 37 38 39 40 41 42 43 44 45 46 47 48 49 50
000
ASUS45 KSLC 211310
RWRUT

UTAH REGIONAL WEATHER ROUNDUP
NATIONAL WEATHER SERVICE SALT LAKE CITY UT
700 AM MDT SUN SEP 21 2014

UTZ001>011-023>025-211400-

NORTHERN UTAH

CITY           SKY/WX    TMP DP  RH WIND       PRES   REMARKS
HILL AFB       LGT RAIN  63  41  45 E13       30.17R
LOGAN          CLEAR     53  49  86 VRB3      30.16R
OGDEN          CLOUDY    67  46  47 S7        30.15R
PROVO AIRPORT  LGT RAIN  64  55  72 SW5       30.16F
SALT LAKE CITY CLOUDY    69  49  48 SE6       30.12S
VERNAL         CLOUDY    56  41  57 W3        30.23R
WENDOVER       CLOUDY    66  54  63 SW5       30.14R
HEBER CITY     DRIZZLE   57  46  67 N6        30.23F
WEST JORDAN    CLOUDY    68  48  49 S10       30.15F

$$

UTZ012>022-026-027-211400-

SOUTHERN UTAH

CITY           SKY/WX    TMP DP  RH WIND       PRES   REMARKS
BRYCE CANYON   LGT RAIN  52  51  97 W5        30.31S
CEDAR CITY     CLOUDY    57  54  89 NW6       30.21R
MILFORD        CLOUDY    60  57  89 S3        30.16R
MOAB/CYNLANDS  CLEAR     72  51  47 CALM      30.13R
PRICE          CLOUDY    61  51  70 SW5       30.23R
ST GEORGE      CLOUDY    68  61  77 S6        30.07R
KANAB          MOCLDY    61  59  94 NW9       30.19R

$$

REGIONAL REPORTS     COLORADO/ARIZONA

CITY           SKY/WX    TMP DP  RH WIND       PRES   REMARKS
CRAIG, CO      PTCLDY    41  34  76 CALM      30.31R
GRAND JUNCTION CLOUDY    65  53  65 S21G30    30.23R
RIFLE          MOCLDY    56  45  66 W3        30.27R
MONTROSE       RAIN      59  55  87 E10       30.38R
CORTEZ         MOCLDY    60  56  86 CALM      30.30R
PAGE, AZ       MOCLDY    67  58  72 SW3       30.12R
GRAND CANYON   MOCLDY    55  53  93 CALM      30.26R
KINGMAN        CLOUDY    74  56  53 E7        30.03R
FLAGSTAFF      CLEAR     52  50  93 CALM      30.30R

$$

REGIONAL REPORTS    NEVADA/IDAHO/WYOMING

CITY           SKY/WX    TMP DP  RH WIND       PRES   REMARKS
LAS VEGAS, NV  MOCLDY    75  60  59 S5        29.94R
ELY            LGT RAIN  53  52  96 SW7       30.25F
ELKO           CLOUDY    58  51  78 S5        30.18S
POCATELLO, ID  CLEAR     47  45  93 CALM      30.12S
BURLEY         MOCLDY    50  45  83 CALM      30.09R
EVANSTON, WY   CLOUDY    52  38  58 S8        30.36R
ROCK SPRINGS   PTCLDY    48  36  63 E10       30.35R

$$



USA.gov is the U.S. government's official web portal to all federal, state and local government web resources and services.